Regional Weather Roundup
Issued by NWS

Home | Current Version | Previous Version | Text Only | Print | Product List | Glossary Off
Versions: 1 2 3 4 5 6 7 8 9 10 11 12 13 14 15 16 17 18 19 20 21 22 23 24 25 26 27 28 29 30 31 32 33 34 35 36 37 38 39 40 41 42 43 44 45 46 47 48 49 50

000
ASUS45 KCYS 221910
RWRWY

WYOMING REGIONAL WEATHER ROUNDUP
NATIONAL WEATHER SERVICE CHEYENNE WY
1200 PM MST MON JAN 22 2018

NOTE:  "FAIR" INDICATES FEW OR NO CLOUDS BELOW 12,000 FEET
WITH NO SIGNIFICANT WEATHER AND/OR OBSTRUCTIONS TO VISIBILITY.

WYZ001-222000-
YELLOWSTONE NATIONAL PARK

CITY           SKY/WX    TMP DP  RH WIND       PRES   REMARKS
LK YELLOWSTONE   N/A     11   8  88 CALM      30.13F
W YELLOWSTONE  NOT AVBL

$$
WYZ002>013-054>058-071-098>099-222000-
NORTHERN WYOMING

CITY           SKY/WX    TMP DP  RH WIND       PRES   REMARKS
JACKSON        LGT SNOW  10   5  79 CALM      30.20F
CODY           FAIR      33  12  41 W15G22    30.06F WCI  23
GREYBULL       PTSUNNY   15  11  83 S3        30.14F
WORLAND        PTSUNNY   17  11  77 CALM      30.13F
SHERIDAN       FAIR      26  14  60 CALM      30.03F
BUFFALO        FAIR      36  11  35 VRB5      30.01F WCI  32
GILLETTE       FAIR      30  17  58 W13       30.00F WCI  20
HULETT         FAIR      32  14  47 SW8       30.00S WCI  25
NEWCASTLE      FAIR      30  18  59 NW10      30.00F WCI  21

$$
WYZ014>020-022>026-101>103-222000-
CENTRAL WYOMING

CITY           SKY/WX    TMP DP  RH WIND       PRES   REMARKS
BIG PINEY      PTSUNNY   17   6  62 S6        30.15F WCI   9
PINEDALE       CLOUDY    21  10  63 NW8       30.15F WCI  12
DUBOIS         FAIR      28  12  50 NW17      30.05F WCI  16
LANDER         CLOUDY    14   4  64 NW3       30.07F
RIVERTON       CLOUDY     9   4  80 CALM      30.09F
CASPER         FAIR      20  13  74 SW30G36   30.07F WCI   1
DOUGLAS        FAIR      27  15  61 W13       30.03F WCI  16

$$
WYZ021-027>030-104>119-222000-
SOUTHERN WYOMING

CITY           SKY/WX    TMP DP  RH WIND       PRES   REMARKS
EVANSTON       LGT SNOW  16  13  88 S8        30.18F FOG     WCI   5
FORT BRIDGER   CLOUDY    22  15  73 W15       30.22S WCI   9
ROCK SPRINGS   PTSUNNY   18  11  74 SW3       30.17F
DIXON            N/A     19   9  65 CALM      30.25F
RAWLINS        FAIR      20  11  68 SW7       30.15F WCI  11
SARATOGA       FAIR      19   9  63 S9        30.16F WCI   9
LARAMIE        FAIR      18   7  62 NE6       30.03F WCI  10
CHEYENNE       FAIR      28  12  51 W18G28    29.98F WCI  15
TORRINGTON     FAIR      26  13  57 NW10      30.00F WCI  16

$$



USA.gov is the U.S. government's official web portal to all federal, state and local government web resources and services.